Location: Albany
(35.0170°S, 117.8920°E)
Time: 03:47:04
(UTC+08:00)

Vanguard 1 - Pass Details

Date: 03 February 2021
Orbit: 649 x 3833 km, 34.2° (Epoch: 26 February)

Event Time Altitude Azimuth Distance (km) Brightness Sun altitude
Rises 02:46:33 0° 262° (W) 3,866 - -28.1°
Reaches altitude 10° 02:49:42 10° 265° (W) 2,585 - -27.7°
Maximum altitude 02:55:12 59° 343° (NNW) 810 - -26.9°
Exits shadow 02:57:42 25° 55° (NE) 1,335 10.8 -26.6°
Drops below altitude 10° 02:59:33 10° 63° (ENE) 2,052 11.9 -26.3°
Sets 03:01:48 0° 67° (ENE) 2,989 12.8 -26.0°
